カタログに戻る

ONEWEB-0384

運用中通信PO
NORAD 49310·PAYLOAD·🇬🇧 United Kingdom

打ち上げ Oct 14, 2021 から Vostochny Cosmodrome

Loading…

次のパス (今後24時間)

TLE

最新Source: CelesTrak SupGP

元期: Sep 14, 2026, 14:28 UTC

1 49310C 21090AH  26257.60330273 -.00001193  00000+0 -29344-2 0  2571
2 49310  87.9142 256.6410 0002517  94.9174 281.3026 13.20821196    19

AllMySatでONEWEB-0384をリアルタイム追跡

Download on the App Store